Weather observations for the past three days for
Watonga, Watonga Airport
Imperial (Metric)
Date Time (cdt) Wind (mph) Vis. (mi.) Weather Sky Cond. Temperature (ºF) Relative Humidity Wind Chill (°F) Heat Index (°F) Pressure Precipitation (in)
Air Dwpt 6 hour altimeter (in) sea level (mb) 1 hr 3 hr 6 hr
Max. Min.
16 10:15 W 15 10.00 Light Rain SCT085 SCT100 SCT120 80.8 65.1 59% 83 29.95 0.0
16 09:55 W 10 10.00 Thunderstorm in Vicinity CLR 81.5 64.6 57% 83 29.94 0.0
16 09:35 SW 6 10.00 Fair CLR 81 64.6 58% 83 29.91 0.0
16 09:15 S 10 10.00 Partly Cloudy SCT055 SCT070 SCT120 80.1 64.6 59% 82 29.89 0.0
16 08:55 SE 7 10.00 Partly Cloudy SCT055 SCT070 SCT120 80.4 64.6 59% 82 29.91 0.0
16 08:35 SE 5 10.00 Fair CLR 80.8 64 57% 82 29.92 0.0
16 08:15 SW 6 10.00 Fair CLR 81.1 63.9 56% 83 29.91 0.0
16 07:55 S 7 10.00 Fair CLR 80.8 64 57% 82 29.9 0.0
16 07:35 SW 7 10.00 Fair CLR 80.8 63.9 56% 82 29.9 0.0
16 07:15 S 9 10.00 Thunderstorm in Vicinity CLR 81 63.9 56% 82 29.89 0.0
16 06:55 S 8 10.00 Thunderstorm CLR 80.4 64.2 87.6 80.1 58% 82 29.88 0.0
16 06:35 S 5 10.00 Fair CLR 80.6 64.2 58% 82 29.89 0.0
16 06:15 S 7 10.00 Fair CLR 81.3 64.2 56% 83 29.88 0.0
16 05:55 S 9 10.00 Thunderstorm CLR 81.7 64.2 56% 83 29.87 0.0
16 05:35 S 8 10.00 Thunderstorm in Vicinity CLR 81.9 64.8 56% 84 29.88 0.0
16 05:15 S 9 10.00 Thunderstorm CLR 82.6 64.6 55% 84 29.88 0.0
16 04:55 S 8 10.00 Fair CLR 83.3 64.4 53% 85 29.88 0.0
16 04:35 S 8 10.00 Fair CLR 82.6 64.9 55% 84 29.87 0.0
16 04:15 SW 6 10.00 Fair CLR 83.3 65.1 54% 85 29.87 0.0
16 03:55 SW 13 10.00 Thunderstorm in Vicinity CLR 83.7 65.3 54% 86 29.87 0.0
16 03:35 S 15 10.00 Fair CLR 84.7 64.9 52% 86 29.86 0.0
16 03:15 S 13 G 21 10.00 Fair CLR 85.1 65.1 51% 87 29.86 0.0
16 02:55 S 12 10.00 Fair CLR 85.1 65.1 51% 87 29.86 0.0
16 02:35 S 16 10.00 Fair CLR 86 64.4 49% 87 29.86 0.0
16 02:15 S 13 10.00 Thunderstorm in Vicinity CLR 86 65.1 50% 88 29.87 0.0
16 01:55 S 15 G 20 10.00 Fair CLR 86.9 65.1 48% 89 29.87 0.0
16 01:35 S 13 10.00 Fair CLR 87.1 65.1 48% 89 29.87 0.0
16 01:15 S 13 10.00 Fair CLR 87.3 64.9 48% 89 29.87 0.0
16 00:55 S 12 G 17 10.00 Fair CLR 87.6 64.9 100.2 87.4 47% 89 29.87 0.0
16 00:35 S 12 10.00 Fair CLR 87.8 64.9 47% 90 29.87 0.0
16 00:15 S 13 G 18 10.00 Fair CLR 87.8 64.9 47% 90 29.87 0.0
15 23:55 S 12 10.00 Fair CLR 87.6 64.8 47% 89 29.87 0.0
15 23:35 S 12 10.00 Fair CLR 88 64.2 45% 89 29.86 0.0
15 23:15 S 15 10.00 Fair CLR 88 63 43% 89 29.86 0.0
15 22:55 S 10 G 17 10.00 Fair CLR 88.5 62.8 42% 89 29.86 0.0
15 22:35 S 12 10.00 Fair CLR 88.7 63 42% 90 29.86 0.0
15 22:15 S 12 10.00 Fair CLR 89.2 63.1 42% 90 29.86 0.0
15 21:55 S 12 10.00 Fair CLR 90 63.7 42% 91 29.85 0.0
15 21:35 S 14 G 20 10.00 Fair CLR 90.7 64 41% 92 29.84 0.0
15 21:15 S 12 10.00 Fair CLR 91.8 63.5 39% 93 29.84 0.0
15 20:55 S 12 10.00 Fair CLR 93 63.3 37% 94 29.84 0.0
15 20:35 S 12 10.00 Fair CLR 94.1 63.7 37% 96 29.84 0.0
15 19:55 S 15 G 25 10.00 Fair CLR 97 62.1 32% 98 29.84 0.0
15 19:35 S 18 10.00 Fair CLR 97.7 62.8 32% 99 29.84 0.0
15 19:15 S 17 G 23 10.00 Fair CLR 98.8 63.7 32% 101 29.84 0.0
15 18:55 S 16 G 22 10.00 Fair CLR 100 63.1 104.7 98.6 30% 102 29.85 0.0
15 18:35 S 15 G 24 10.00 Fair CLR 100.8 62.6 29% 103 29.85 0.0
15 18:15 S 17 G 26 10.00 Fair CLR 101.3 62.1 28% 103 29.85 0.0
15 17:55 S 18 G 26 10.00 Fair CLR 102.4 61.9 27% 104 29.85 0.0
15 17:35 S 18 G 23 10.00 Fair CLR 102.6 62.8 27% 105 29.86 0.0
15 17:15 S 18 G 25 10.00 Fair CLR 103.3 62.2 26% 105 29.86 0.0
15 16:55 S 21 G 25 10.00 Fair and Breezy CLR 103.8 63 26% 107 29.87 0.0
15 16:35 S 18 G 25 10.00 Fair CLR 102.9 62.6 27% 105 29.87 0.0
15 16:15 S 18 G 28 10.00 Fair CLR 103.8 62.1 26% 106 29.88 0.0
15 15:55 S 20 G 32 10.00 Fair CLR 104.2 61.7 25% 106 29.89 0.0
15 15:35 SW 17 G 28 10.00 Fair CLR 104 61.3 25% 106 29.89 0.0
15 15:15 SW 22 G 28 10.00 Fair and Breezy CLR 103.3 59.5 24% 104 29.9 0.0
15 14:55 S 20 G 28 10.00 Fair CLR 102.2 60.8 26% 103 29.9 0.0
15 14:35 S 21 G 28 10.00 Fair and Breezy CLR 102.7 64.2 29% 106 29.91 0.0
15 14:15 S 18 G 25 10.00 Fair CLR 101.5 65.5 31% 106 29.91 0.0
15 13:55 S 18 G 29 10.00 Fair CLR 100.9 64.8 31% 104 29.92 0.0
15 13:35 S 20 G 33 10.00 Fair CLR 100.4 65.8 32% 105 29.92 0.0
15 13:15 S 22 G 29 10.00 Fair and Breezy CLR 99.9 65.3 32% 103 29.92 0.0
15 12:55 S 20 G 25 10.00 Fair CLR 99.3 66.2 99.7 76.6 34% 104 29.92 0.0
15 12:35 S 17 G 25 10.00 Fair CLR 98.8 65.7 34% 102 29.93 0.0
15 12:15 S 15 G 25 10.00 Fair CLR 97.2 65.3 35% 100 29.94 0.0
15 11:55 S 15 G 22 10.00 Fair CLR 95.9 66 38% 99 29.94 0.0
15 11:35 S 18 10.00 Fair CLR 95.2 65.7 38% 98 29.95 0.0
15 11:15 S 15 10.00 Fair CLR 93.9 65.3 39% 97 29.95 0.0
15 10:55 S 14 10.00 Fair CLR 92.1 65.8 42% 95 29.96 0.0
15 10:35 S 16 G 25 10.00 Fair CLR 91.4 64.4 41% 93 29.97 0.0
15 10:15 S 16 10.00 Fair CLR 89.6 64.9 44% 91 29.97 0.0
15 09:55 SW 18 10.00 Fair CLR 88.7 64.9 45% 91 29.98 0.0
15 09:35 S 13 10.00 Fair CLR 86.9 64.6 47% 88 29.98 0.0
15 09:15 S 13 10.00 Fair CLR 84.7 64.2 50% 86 29.98 0.0
15 08:55 S 12 10.00 Fair CLR 83.3 63.7 52% 85 29.98 0.0
15 08:35 S 12 10.00 Fair CLR 81.7 63.3 54% 83 29.97 0.0
15 08:15 S 10 10.00 Fair CLR 80.4 63.1 56% 82 29.98 0.0
15 07:55 S 9 10.00 Fair CLR 79.3 63 57% 81 29.98 0.0
15 07:35 S 9 10.00 Fair CLR 78.3 63 59% 80 29.97 0.0
15 07:15 S 9 10.00 Fair CLR 77.4 63 61% 79 29.98 0.0
15 06:55 S 8 10.00 Fair CLR 76.8 63 83.5 76.3 62% 79 29.98 0.0
15 06:35 S 10 10.00 Fair CLR 76.6 63.1 63% 78 29.97 0.0
15 06:15 S 9 10.00 Fair CLR 76.5 63.5 64% 78 29.96 0.0
15 05:55 S 9 10.00 Fair CLR 77 63.7 64% 79 29.96 0.0
15 05:35 S 8 10.00 Fair CLR 77.5 63.9 63% 79 29.96 0.0
15 05:15 S 6 10.00 Fair CLR 77 64.4 65% 79 29.96 0.0
15 04:55 S 7 10.00 Fair CLR 77.5 64.2 64% 79 29.96 0.0
15 04:35 S 7 10.00 Fair CLR 78.8 64.2 61% 81 29.96 0.0
15 04:15 S 9 10.00 Fair CLR 79.9 64.2 59% 82 29.96 0.0
15 03:55 S 9 10.00 Fair CLR 80.2 64.2 58% 82 29.96 0.0
15 03:35 S 12 G 17 10.00 Fair CLR 81 64.2 57% 83 29.96 0.0
15 03:15 S 10 10.00 Fair CLR 81.3 64.2 56% 83 29.97 0.0
15 02:55 S 13 10.00 Fair CLR 82 64.6 56% 84 29.97 0.0
15 02:35 S 15 G 21 10.00 Fair CLR 82.2 64.6 55% 84 29.97 0.0
15 02:15 S 13 10.00 Fair CLR 82.4 64.8 55% 84 29.98 0.0
15 01:55 S 13 G 18 10.00 Fair CLR 83.3 64.8 54% 85 29.99 0.0
15 01:35 S 13 G 16 10.00 Fair CLR 82.4 66.2 58% 85 30 0.0
15 01:15 S 9 10.00 Fair CLR 82.4 66 58% 85 30 0.0
15 00:55 S 9 10.00 Fair CLR 82.6 66.4 97.5 82.4 58% 85 30 0.0
15 00:35 S 12 10.00 Fair CLR 82.8 66.4 58% 85 30.01 0.0
15 00:15 S 9 10.00 Fair CLR 82.8 66.6 58% 85 30 0.0
14 23:55 S 8 10.00 Fair CLR 82.9 66.6 58% 85 30 0.0
14 23:35 S 10 10.00 Fair CLR 83.1 66.6 57% 86 29.99 0.0
14 23:15 S 9 G 17 10.00 Fair CLR 83.1 66 56% 85 29.99 0.0
14 22:55 S 10 10.00 Fair CLR 83.3 64.9 54% 85 29.99 0.0
14 22:35 S 8 10.00 Fair CLR 84 63.9 51% 85 29.99 0.0
14 22:15 SE 9 10.00 Fair CLR 85.3 63.3 48% 86 29.98 0.0
14 21:55 S 8 10.00 Fair CLR 86.7 63.3 46% 88 29.98 0.0
14 21:35 S 8 10.00 Fair CLR 88.2 63.1 43% 89 29.98 0.0
14 21:15 S 9 10.00 Fair CLR 89.4 63.1 42% 90 29.98 0.0
14 20:55 S 7 10.00 Fair CLR 90.3 61.9 39% 91 29.98 0.0
14 20:35 S 8 10.00 Fair CLR 92.3 59.7 34% 92 29.98 0.0
14 20:15 S 9 10.00 Fair CLR 93.6 60.3 33% 93 29.98 0.0
14 19:55 S 13 10.00 Fair CLR 94.8 60.4 32% 95 29.97 0.0
14 19:35 S 12 10.00 Fair CLR 96.1 60.6 31% 96 29.97 0.0
14 19:15 S 17 G 21 10.00 Fair CLR 96.8 61.5 31% 98 29.97 0.0
14 18:55 S 16 G 21 10.00 Fair CLR 97.7 62.4 102.4 96.4 31% 99 29.97 0.0
14 18:35 S 15 10.00 Fair CLR 98.6 62.1 30% 100 29.97 0.0
14 18:15 S 18 G 24 10.00 Fair CLR 99 61.5 29% 100 29.97 0.0
14 17:55 S 16 G 21 10.00 Fair CLR 99.9 62.4 29% 102 29.98 0.0
14 17:35 S 13 G 22 10.00 Fair CLR 100 62.8 29% 102 29.98 0.0
14 17:15 S 14 G 24 10.00 Fair CLR 101.1 61.5 27% 103 29.98 0.0
14 16:55 S 15 G 24 10.00 Fair CLR 101.3 61.7 27% 103 29.99 0.0
14 16:35 S 14 G 23 10.00 Fair CLR 100.8 62.1 28% 102 30 0.0
14 16:15 S 16 G 23 10.00 Fair CLR 101.3 62.2 28% 103 30 0.0
14 15:55 S 18 G 23 10.00 Fair CLR 100.4 63 29% 103 30.01 0.0
14 15:35 S 14 G 23 10.00 Fair CLR 100.6 62.2 28% 102 30.01 0.0
14 15:15 S 16 G 24 10.00 Fair CLR 100 63.1 30% 102 30.02 0.0
14 14:55 S 17 G 25 10.00 Fair CLR 100.4 62.4 29% 102 30.03 0.0
14 14:35 S 14 G 24 10.00 Fair CLR 98.8 63.9 32% 101 30.02 0.0
14 14:15 SW 16 G 22 10.00 Fair CLR 99.3 64.9 32% 103 30.03 0.0
14 13:55 SW 20 10.00 Fair CLR 99 64.9 33% 102 30.03 0.0
14 13:35 SW 16 G 28 10.00 Fair CLR 97.9 64.9 34% 101 30.04 0.0
14 13:15 S 16 G 26 10.00 Fair CLR 96.8 66 36% 100 30.05 0.0
14 12:55 SW 21 G 28 10.00 Fair and Breezy CLR 97 66.2 97.3 74.8 37% 101 30.05 0.0
14 12:35 SW 16 G 24 10.00 Fair CLR 95.5 66.7 39% 99 30.06 0.0
14 12:15 SW 18 G 24 10.00 Fair CLR 95.2 66.2 39% 99 30.06 0.0
14 11:55 SW 16 G 21 10.00 Fair CLR 93.4 67.1 42% 97 30.06 0.0
14 11:35 SW 15 G 20 10.00 Fair CLR 93.2 66.2 41% 96 30.07 0.0
14 11:15 S 15 10.00 Fair CLR 91 66.9 45% 94 30.07 0.0
14 10:55 SW 14 G 20 10.00 Fair CLR 89.4 66.2 46% 92 30.07 0.0
14 10:35 SW 18 10.00 Fair CLR 90 66.4 46% 93 30.08 0.0
14 10:15 S 13 G 17 10.00 Fair CLR 87.8 66.7 50% 91 30.08 0.0
14 09:55 S 15 G 23 10.00 Fair CLR 87.3 66.9 51% 90 30.08 0.0
14 09:35 S 14 G 25 10.00 Fair CLR 84.2 66.7 56% 87 30.08 0.0
14 09:15 S 12 10.00 Fair CLR 82.4 67.3 60% 85 30.09 0.0
14 08:55 SW 17 G 24 10.00 Fair CLR 81.1 67.1 62% 84 30.1 0.0
14 08:35 S 14 G 18 10.00 Fair CLR 80.8 67.5 64% 83 30.1 0.0
14 08:15 S 14 G 17 10.00 Fair CLR 79.2 68.2 69% 82 30.1 0.0
14 07:55 S 14 10.00 Fair CLR 77.5 68 73% 79 30.09 0.0
14 07:35 S 10 10.00 Fair CLR 76.6 68.5 76% 78 30.09 0.0
14 07:15 S 12 10.00 Fair CLR 75.2 68.4 79% 76 30.08 0.0
14 06:55 S 9 10.00 Fair CLR 75.2 68 81.1 74.7 78% 76 30.08 0.0
14 06:35 S 9 10.00 Fair CLR 75 68.2 79% 76 30.08 0.0
14 06:15 S 10 10.00 Fair CLR 75.2 68 78% 76 30.07 0.0
14 05:55 S 10 10.00 Fair CLR 75.4 68.2 78% 76 30.07 0.0
14 05:35 S 10 G 16 10.00 Fair CLR 75.9 68 77% 77 30.07 0.0
14 05:15 S 12 10.00 Fair CLR 76.3 67.8 75% 78 30.07 0.0
14 04:55 S 12 10.00 Fair CLR 76.5 67.6 74% 78 30.06 0.0
14 04:35 S 10 10.00 Fair CLR 76.6 67.6 74% 78 30.06 0.0
14 04:15 S 9 10.00 Fair CLR 77 68 74% 79 30.06 0.0
14 03:55 S 9 10.00 Fair CLR 77.2 67.3 72% 79 30.06 0.0
14 03:35 S 10 10.00 Fair CLR 78.3 67.1 69% 80 30.07 0.0
14 03:15 S 10 10.00 Fair CLR 78.3 66.9 68% 80 30.07 0.0
14 02:55 S 10 10.00 Fair CLR 78.6 66.9 67% 81 30.08 0.0
14 02:35 S 10 10.00 Fair CLR 79.3 66.7 65% 82 30.08 0.0
14 02:15 S 14 G 18 10.00 Fair CLR 79.5 66.6 65% 82 30.08 0.0
14 01:55 S 12 10.00 Fair CLR 80.6 66.2 62% 83 30.09 0.0
14 01:35 S 12 10.00 Fair CLR 80.4 66.2 62% 83 30.09 0.0
14 01:15 S 10 10.00 Fair CLR 80.4 66 62% 83 30.09 0.0
14 00:55 S 12 10.00 Fair CLR 80.8 66 92.5 80.8 61% 83 30.09 0.0
14 00:35 S 10 G 17 10.00 Fair CLR 81.3 66 60% 83 30.1 0.0
14 00:15 S 10 10.00 Fair CLR 81.7 65.8 59% 84 30.09 0.0
13 23:55 S 14 10.00 Fair CLR 81.7 65.8 59% 84 30.09 0.0
13 23:35 S 10 10.00 Fair CLR 81.3 66 60% 83 30.1 0.0
13 23:15 S 9 10.00 Fair CLR 81.9 66.4 60% 84 30.1 0.0
13 22:55 S 12 10.00 Fair CLR 82.4 66.6 59% 85 30.11 0.0
13 22:35 S 12 10.00 Fair CLR 82.6 66.7 59% 85 30.1 0.0
13 22:15 SE 10 10.00 Fair CLR 83.3 66.9 58% 86 30.1 0.0
13 21:55 SE 9 10.00 Fair CLR 84.2 66.6 56% 87 30.09 0.0
13 21:35 SE 10 10.00 Fair CLR 84.9 65.8 53% 87 30.09 0.0
13 21:15 SE 10 10.00 Fair CLR 85.8 65.1 50% 88 30.09 0.0
13 20:55 SE 10 10.00 Fair CLR 86.9 65.5 49% 89 30.09 0.0
13 20:35 SE 9 10.00 Fair CLR 88 66.2 49% 90 30.08 0.0
13 19:55 S 10 G 18 10.00 Fair CLR 90.7 65.7 44% 93 30.08 0.0
13 19:35 S 13 10.00 Fair CLR 91.8 65.5 42% 94 30.08 0.0
13 19:15 S 12 10.00 Fair CLR 92.3 63 38% 93 30.08 0.0
13 18:55 S 13 G 18 10.00 Fair CLR 92.8 64.2 97.7 92.5 39% 95 30.08 0.0
13 18:35 S 14 G 20 10.00 Fair CLR 94.1 64.8 38% 96 30.08 0.0
13 18:15 S 13 G 18 10.00 Fair CLR 94.5 63.9 36% 96 30.08 0.0
13 17:55 S 12 G 22 10.00 Fair CLR 94.5 63 35% 96 30.08 0.0
13 17:35 S 14 G 20 10.00 Fair CLR 94.6 63 35% 96 30.08 0.0
13 17:15 S 13 G 18 10.00 Fair CLR 96.1 63.3 34% 98 30.09 0.0
13 16:55 S 16 G 20 10.00 Fair CLR 94.6 60.8 32% 95 30.08 0.0
13 16:35 S 14 G 18 10.00 Fair CLR 94.8 59.5 31% 94 30.09 0.0
13 16:15 S 16 10.00 Fair CLR 96.3 58.1 28% 95 30.1 0.0
13 15:55 S 12 G 21 10.00 Fair CLR 95.4 57.4 28% 94 30.1 0.0
13 15:35 SE 15 G 22 10.00 Fair CLR 96.8 58.1 28% 96 30.1 0.0
13 15:15 S 15 G 22 10.00 Fair CLR 97 59.4 29% 97 30.11 0.0
13 14:55 SE 15 G 23 10.00 Fair CLR 96.3 61.2 31% 97 30.11 0.0
13 14:35 S 14 G 23 10.00 Fair CLR 95.9 63.3 34% 98 30.11 0.0
13 14:15 S 13 10.00 Fair CLR 95.9 60.3 31% 96 30.11 0.0
13 13:55 S 12 G 23 10.00 Fair CLR 95.5 63.9 35% 97 30.12 0.0
13 13:35 S 16 G 24 10.00 Fair CLR 95.2 65.1 37% 98 30.14 0.0
13 13:15 S 15 G 23 10.00 Fair CLR 95 65.3 38% 98 30.14 0.0
13 12:55 S 17 G 21 10.00 Fair CLR 94.3 65.8 94.5 75.2 39% 97 30.14 0.0
13 12:35 S 13 G 18 10.00 Fair CLR 93.4 64.4 38% 95 30.14 0.0
13 12:15 S 15 G 21 10.00 Fair CLR 92.7 65.7 41% 95 30.15 0.0
13 11:55 S 16 10.00 Fair CLR 91.9 66.2 43% 95 30.15 0.0
13 11:35 S 15 G 23 10.00 Fair CLR 91.2 66.7 45% 94 30.14 0.0
13 11:15 SW 18 10.00 Fair CLR 90.3 67.1 46% 94 30.14 0.0
13 10:55 S 17 G 23 10.00 Fair CLR 89.1 67.3 49% 92 30.14 0.0
Date Time (cdt) Wind (mph) Vis. (mi.) Weather Sky Cond. Air Dwpt Max. Min. Relative Humidity Wind Chill (°F) Heat Index (°F) altimeter (in) sea level (mb) 1 hr 3 hr 6 hr
6 hour
Temperature (ºF) Pressure Precipitation (in)